Skip Page Navigation
NASA JPL Caltech
NASA Logo - Jet Propulsion Laboratory + View the NASA Portal
+ Near-Earth Object (NEO) Program
Search JPL
JPL Home Earth Solar System Stars & Galaxies Technology
JPL Solar System Dynamics
BODIES ORBITS EPHEMERIDES TOOLS PHYSICAL DATA DISCOVERY FAQ SITE MAP
JPL Small-Body Database Browser
Search: [ help ]  
236896 (2007 TH17)
Classification: Main-belt Asteroid          SPK-ID: 2236896
Ephemeris | Orbit Diagram | Orbital Elements | Physical Parameters | Discovery Circumstances ]

[ hide orbit diagram ]
Orbit Diagram
Note: Make sure you have Java enabled on your browser to see the applet. This applet is provided as a 3D orbit visualization tool. The applet was implemented using 2-body methods, and hence should not be used for determining accurate long-term trajectories (over several years or decades) or planetary encounter circumstances. For accurate long-term ephemerides, please instead use our Horizons system.
Orbit Viewer

Additional Notes: the orbits shown in the applet are color coded. The planets are white lines, and the asteroid/comet is a blue line. The bright white line indicates the portion of the orbit that is above the ecliptic plane, and the darker portion is below the ecliptic plane. Likewise for the asteroid/comet orbit, the light blue indicates the portion above the ecliptic plane, and the dark blue the portion below the ecliptic plane.

Orbit Viewer applet originally written and kindly provided by Osamu Ajiki (AstroArts), and further modified by Ron Baalke (JPL).


Orbital Elements at Epoch 2456400.5 (2013-Apr-18.0) TDB
Reference: MPO241492 (heliocentric ecliptic J2000)
 Element Value Uncertainty (1-sigma)   Units 
e 0.0755934 n/a  
a 3.1769891 n/a AU
q 2.9368297 n/a AU
i 8.17294 n/a deg
node 222.69290 n/a deg
peri 128.27504 n/a deg
M 30.60285 n/a deg
tp 2456224.6746934
(2012-Oct-24.17469340)
n/a JED
period 2068.3403792
5.66
n/a
n/a
d
yr
n 0.17405259 n/a deg/d
Q 3.4171485 n/a AU
  Orbit Determination Parameters
   # obs. used (total)      154  
   first obs. used      2001-??-??  
   last obs. used      2012-10-09  
   # oppositions      8  
   planetary ephem.      DE403  
   condition code      0  
   fit RMS      0.36  
   data source      MPC:mpu  
   producer      MPCLINUX  

Additional Information
 T_jup = 3.180 

Ephemeris | Orbit Diagram | Orbital Elements | Physical Parameters | Discovery Circumstances ]

Physical Parameter Table
Parameter Symbol Value Units Sigma Reference Notes
absolute magnitude H 16.0 mag n/a MPO241492  

236896 (2007 TH17)          Discovered 2007-Oct-07 by Calvin College at Calvin-Rehoboth (G98)
Reference: 20100330/Numbers.arcLast Updated: 2010-04-05

Alternate Designations
 2007 TH17 = 2005 JB84 
Ephemeris | Orbit Diagram | Orbital Elements | Physical Parameters | Discovery Circumstances ]
ABOUT SSD CREDITS/AWARDS PRIVACY/COPYRIGHT GLOSSARY LINKS
FirstGov 2013-May-21 12:25 UT
(server date/time)  
NASA Home Page
Site Manager:   Donald K. Yeomans
Webmaster  Alan B. Chamberlin